When you browse on this site, cookies collect data to enhance your experience and personalize the content and advertising you see.
Visit our Privacy Policy to learn more. By continuing to use the site, you agree to this use of cookies and data.
  • In Hungary
  • List of Countries
  • For 7 days
  • Water Temperature
  • Weather Map
  • News
  • Weather Widgets
  • user-avatar
    Login

    Hourly Weather Mayak

    Today, 22 February, Saturday

    Time Temperature Precipitation Wind Pressure Humidity
    00:00 -1°C° 0 mm 2 mps 749 mmHg 95%
    01:00 -1°C° 0 mm 2 mps 749 mmHg 96%
    02:00 -1°C° 0 mm 2 mps 750 mmHg 96%
    03:00 -1°C° 0.1 mm 2 mps 750 mmHg 96%
    04:00 -1°C° 0.1 mm 2 mps 750 mmHg 96%
    05:00 -1°C° 0.1 mm 2 mps 750 mmHg 96%
    06:00 -1°C° 0.1 mm 2 mps 750 mmHg 96%
    07:00 -1°C° 0.1 mm 2 mps 750 mmHg 95%
    08:00 -1°C° 0.1 mm 3 mps 750 mmHg 94%
    09:00 -1°C° 0 mm 3 mps 750 mmHg 90%
    10:00 0°C° 0 mm 3 mps 750 mmHg 87%
    11:00 +1°C° 0 mm 3 mps 750 mmHg 83%
    12:00 +1°C° 0 mm 3 mps 750 mmHg 81%
    13:00 +2°C° 0 mm 3 mps 750 mmHg 79%
    14:00 +2°C° 0 mm 3 mps 750 mmHg 76%
    15:00 +1°C° 0 mm 3 mps 749 mmHg 80%
    16:00 0°C° 0 mm 3 mps 748 mmHg 83%
    17:00 -1°C° 0 mm 3 mps 748 mmHg 87%
    18:00 -2°C° 0 mm 4 mps 748 mmHg 86%
    19:00 -2°C° 0 mm 4 mps 748 mmHg 85%
    20:00 -2°C° 0 mm 5 mps 747 mmHg 85%
    21:00 -3°C° 0 mm 6 mps 746 mmHg 84%
    22:00 -3°C° 0 mm 6 mps 745 mmHg 84%
    23:00 -3°C° 0 mm 7 mps 744 mmHg 83%

    Tomorrow, 23 February, Sunday

    Time Temperature Precipitation Wind Pressure Humidity
    00:00 -3°C° 0 mm 7 mps 744 mmHg 82%
    01:00 -4°C° 0 mm 8 mps 743 mmHg 81%
    02:00 -4°C° 0 mm 9 mps 742 mmHg 81%
    03:00 -4°C° 0.1 mm 9 mps 741 mmHg 83%
    04:00 -4°C° 0.1 mm 9 mps 739 mmHg 86%
    05:00 -4°C° 0.1 mm 10 mps 738 mmHg 89%
    06:00 -4°C° 0.6 mm 10 mps 737 mmHg 91%
    07:00 -4°C° 0.6 mm 10 mps 737 mmHg 93%
    08:00 -4°C° 0.6 mm 10 mps 736 mmHg 95%
    09:00 -4°C° 0.7 mm 9 mps 735 mmHg 96%
    10:00 -4°C° 0.7 mm 9 mps 734 mmHg 96%
    11:00 -3°C° 0.7 mm 9 mps 733 mmHg 97%
    12:00 -2°C° 0.5 mm 8 mps 732 mmHg 97%
    13:00 -1°C° 0.5 mm 7 mps 732 mmHg 97%
    14:00 -1°C° 0.5 mm 6 mps 732 mmHg 97%
    15:00 -1°C° 0.4 mm 6 mps 732 mmHg 95%
    16:00 -2°C° 0.4 mm 6 mps 731 mmHg 94%
    17:00 -1°C° 0.4 mm 5 mps 731 mmHg 92%
    18:00 -1°C° 0 mm 5 mps 731 mmHg 90%
    19:00 -2°C° 0 mm 5 mps 732 mmHg 88%
    20:00 -2°C° 0 mm 4 mps 732 mmHg 86%
    21:00 -2°C° 0 mm 5 mps 732 mmHg 86%
    22:00 -2°C° 0 mm 5 mps 731 mmHg 86%
    23:00 -4°C° 0 mm 5 mps 731 mmHg 86%

    Day after tomorrow, 24 February, Monday

    Time Temperature Precipitation Wind Pressure Humidity
    00:00 -4°C° 0 mm 5 mps 731 mmHg 87%
    01:00 -3°C° 0 mm 4 mps 731 mmHg 88%
    02:00 -3°C° 0 mm 4 mps 730 mmHg 89%
    03:00 -2°C° 0 mm 3 mps 730 mmHg 91%
    04:00 -4°C° 0 mm 3 mps 729 mmHg 92%
    05:00 -3°C° 0 mm 2 mps 729 mmHg 93%
    06:00 -3°C° 0 mm 2 mps 729 mmHg 92%
    07:00 -2°C° 0 mm 2 mps 728 mmHg 91%
    08:00 0°C° 0 mm 1 mps 728 mmHg 90%
    09:00 +1°C° 0 mm 1 mps 728 mmHg 88%
    10:00 -1°C° 0 mm 2 mps 728 mmHg 86%
    11:00 +1°C° 0 mm 2 mps 728 mmHg 84%
    12:00 0°C° 0 mm 3 mps 728 mmHg 82%
    13:00 +1°C° 0 mm 3 mps 728 mmHg 79%
    14:00 0°C° 0 mm 4 mps 729 mmHg 77%
    15:00 -1°C° 0 mm 4 mps 729 mmHg 78%
    16:00 -1°C° 0 mm 5 mps 730 mmHg 79%
    17:00 -1°C° 0 mm 5 mps 730 mmHg 80%
    18:00 -3°C° 0 mm 6 mps 731 mmHg 79%
    19:00 -3°C° 0 mm 6 mps 732 mmHg 78%
    20:00 -3°C° 0 mm 7 mps 733 mmHg 77%
    21:00 -4°C° 0 mm 6 mps 733 mmHg 76%
    22:00 -4°C° 0 mm 6 mps 734 mmHg 74%
    23:00 -5°C° 0 mm 6 mps 734 mmHg 72%

    25 February, Tuesday

    Time Temperature Precipitation Wind Pressure Humidity
    00:00 -5°C° 0 mm 5 mps 735 mmHg 73%
    01:00 -5°C° 0 mm 5 mps 735 mmHg 75%
    02:00 -5°C° 0 mm 5 mps 736 mmHg 76%
    03:00 -4°C° 0 mm 4 mps 736 mmHg 77%
    04:00 -4°C° 0 mm 4 mps 736 mmHg 79%
    05:00 -4°C° 0 mm 4 mps 737 mmHg 80%
    06:00 -4°C° 0 mm 4 mps 737 mmHg 80%
    07:00 -4°C° 0 mm 4 mps 737 mmHg 80%
    08:00 -4°C° 0 mm 4 mps 737 mmHg 79%
    09:00 -4°C° 0 mm 5 mps 737 mmHg 73%
    10:00 -2°C° 0 mm 5 mps 737 mmHg 67%
    11:00 -2°C° 0 mm 6 mps 737 mmHg 61%
    12:00 -1°C° 0 mm 6 mps 737 mmHg 64%
    13:00 -1°C° 0 mm 7 mps 736 mmHg 68%
    14:00 -1°C° 0 mm 7 mps 736 mmHg 72%
    15:00 -1°C° 0 mm 7 mps 735 mmHg 79%
    16:00 -2°C° 0 mm 6 mps 735 mmHg 86%
    17:00 -2°C° 0 mm 6 mps 734 mmHg 93%
    18:00 -2°C° 0.1 mm 6 mps 734 mmHg 94%
    19:00 -2°C° 0.1 mm 6 mps 733 mmHg 95%
    20:00 -2°C° 0.1 mm 7 mps 733 mmHg 96%
    21:00 -2°C° 0.1 mm 7 mps 732 mmHg 96%
    22:00 -1°C° 0.1 mm 7 mps 732 mmHg 96%
    23:00 -1°C° 0.1 mm 7 mps 732 mmHg 95%

    26 February, Wednesday

    Time Temperature Precipitation Wind Pressure Humidity
    00:00 -1°C° 0 mm 7 mps 731 mmHg 94%
    01:00 -1°C° 0 mm 7 mps 731 mmHg 93%
    02:00 -1°C° 0 mm 7 mps 731 mmHg 92%
    03:00 -1°C° 0 mm 7 mps 731 mmHg 92%
    04:00 -2°C° 0 mm 6 mps 730 mmHg 92%
    05:00 -2°C° 0 mm 6 mps 730 mmHg 92%
    06:00 -2°C° 0 mm 6 mps 730 mmHg 92%
    07:00 -2°C° 0 mm 6 mps 730 mmHg 93%
    08:00 -1°C° 0 mm 6 mps 730 mmHg 94%
    09:00 0°C° 0 mm 5 mps 730 mmHg 93%
    10:00 0°C° 0 mm 5 mps 730 mmHg 93%
    11:00 0°C° 0 mm 5 mps 730 mmHg 92%
    12:00 0°C° 0.1 mm 5 mps 731 mmHg 92%
    13:00 0°C° 0.1 mm 5 mps 731 mmHg 92%
    14:00 0°C° 0.1 mm 4 mps 731 mmHg 93%
    15:00 0°C° 0.1 mm 4 mps 731 mmHg 94%
    16:00 +1°C° 0.1 mm 3 mps 731 mmHg 95%
    17:00 0°C° 0.1 mm 3 mps 731 mmHg 96%
    18:00 0°C° 0.3 mm 3 mps 731 mmHg 97%
    19:00 +1°C° 0.3 mm 2 mps 731 mmHg 97%
    20:00 +1°C° 0.3 mm 2 mps 731 mmHg 97%
    21:00 +1°C° 0.3 mm 2 mps 731 mmHg 97%
    22:00 +1°C° 0.3 mm 2 mps 731 mmHg 98%
    23:00 +2°C° 0.3 mm 1 mps 731 mmHg 98%

    27 February, Thursday

    Time Temperature Precipitation Wind Pressure Humidity
    00:00 +2°C° 0.7 mm 1 mps 731 mmHg 98%
    01:00 +2°C° 0.7 mm 1 mps 731 mmHg 98%
    02:00 +2°C° 0.7 mm 1 mps 731 mmHg 98%
    03:00 +2°C° 0.5 mm 1 mps 731 mmHg 98%
    04:00 +1°C° 0.5 mm 2 mps 731 mmHg 98%
    05:00 +1°C° 0.5 mm 2 mps 731 mmHg 98%
    06:00 +1°C° 0.3 mm 2 mps 732 mmHg 98%
    07:00 +2°C° 0.3 mm 2 mps 732 mmHg 98%
    08:00 +2°C° 0.3 mm 2 mps 732 mmHg 98%
    09:00 +2°C° 0.1 mm 2 mps 732 mmHg 98%
    10:00 +2°C° 0.1 mm 2 mps 733 mmHg 98%
    11:00 +2°C° 0.1 mm 2 mps 733 mmHg 98%
    12:00 +2°C° 0 mm 2 mps 733 mmHg 98%
    13:00 +2°C° 0 mm 2 mps 733 mmHg 98%
    14:00 +2°C° 0 mm 2 mps 733 mmHg 97%
    15:00 +2°C° 0 mm 2 mps 733 mmHg 97%
    16:00 +2°C° 0 mm 2 mps 734 mmHg 97%
    17:00 +1°C° 0 mm 3 mps 734 mmHg 97%
    18:00 +1°C° 0 mm 3 mps 734 mmHg 97%
    19:00 0°C° 0 mm 3 mps 734 mmHg 97%
    20:00 0°C° 0 mm 3 mps 734 mmHg 97%
    21:00 0°C° 0.2 mm 3 mps 734 mmHg 97%
    22:00 -1°C° 0.2 mm 4 mps 734 mmHg 97%
    23:00 -1°C° 0.2 mm 4 mps 734 mmHg 97%
    Show more